Weather History for KUAO - November, 2013

Change the Weather History Date:

Wednesday, November 6, 2013

  Actual Average Record
Temperature  
Mean Temperature 51 °F -  
Max Temperature 54 °F - 66 °F (2006)
Min Temperature 49 °F - 30 °F (2004)
Degree Days  
Heating Degree Days 13    
Month to date heating degree days 92  
Since 1 July heating degree days 609  
Cooling Degree Days 0    
Month to date cooling degree days 0  
Year to date cooling degree days 426  
Growing Degree Days 1 (Base 50)    
Moisture  
Dew Point 51 °F    
Average Humidity 97    
Maximum Humidity 100    
Minimum Humidity 93    
Precipitation  
Precipitation 0.28 in - 1.91 in (2006)
Month to date precipitation 1.40  
Year to date precipitation 23.36  
Sea Level Pressure  
Sea Level Pressure 30.22 in    
Wind  
Wind Speed 3 mph (North)    
Max Wind Speed 9 mph    
Max Gust Speed 11 mph    
Visibility 4 miles    
Events Rain    
T = Trace of Precipitation, MM = Missing Value Source: NWS Daily Summary

Daily Weather History Graph

Daily Weather History Graph

Search for Another Location

Airport or City:

Trip Planner

Search our weather history database for the weather conditions in past years. The results will help you decide how hot, cold, wet, or windy it might be!

Date:

Astronomy

Nov. 06, 2013 Rise Set
Actual Time 6:57 AM PST 4:51 PM PST
Civil Twilight 6:26 AM PST 5:22 PM PST
Nautical Twilight 5:51 AM PST 5:57 PM PST
Astronomical Twilight 5:16 AM PST 6:32 PM PST
Moon 10:21 AM PST (11/6) 7:58 PM PST (11/6)
Length of Visible Light 10h 56m
Length of Day
9h 53m
Waxing Crescent, 14% of the Moon is Illuminated
Nov 6
Waxing Crescent
Nov 9
First Quarter
Nov 17
Full
Nov 25
Last Quarter
Dec 2
New

Hourly Weather History & Observations

Time (PST) Temp. Dew Point Humidity Pressure Visibility Wind Dir Wind Speed Gust Speed Precip Events Conditions
12:53 AM 50.0 °F 48.9 °F 96% 30.27 in 9.0 mi North 8.1 mph - N/A   Overcast
1:53 AM 50.0 °F 48.9 °F 96% 30.27 in 9.0 mi North 3.5 mph - 0.01 in   Overcast
2:53 AM 50.0 °F 48.9 °F 96% 30.27 in 8.0 mi North 4.6 mph - N/A   Overcast
3:53 AM 50.0 °F 48.9 °F 96% 30.27 in 7.0 mi North 4.6 mph - N/A   Overcast
4:27 AM 48.9 °F 48.9 °F 100% 30.26 in 6.0 mi North 3.5 mph - N/A   Overcast
4:53 AM 48.9 °F 48.9 °F 100% 30.28 in 6.0 mi North 5.8 mph - N/A   Overcast
5:03 AM 48.9 °F 48.0 °F 97% 30.27 in 7.0 mi North 4.6 mph - N/A   Overcast
5:29 AM 48.9 °F 48.0 °F 97% 30.27 in 7.0 mi NNE 3.5 mph - N/A   Overcast
5:53 AM 48.9 °F 48.9 °F 100% 30.28 in 6.0 mi North 5.8 mph - N/A   Overcast
6:03 AM 48.9 °F 48.0 °F 97% 30.27 in 6.0 mi North 4.6 mph - N/A   Overcast
6:17 AM 48.9 °F 48.0 °F 97% 30.27 in 7.0 mi North 5.8 mph - N/A   Overcast
6:53 AM 48.9 °F 48.0 °F 97% 30.28 in 7.0 mi NNE 4.6 mph - N/A   Overcast
7:53 AM 48.9 °F 48.0 °F 97% 30.29 in 7.0 mi Calm Calm - N/A   Overcast
8:53 AM 50.0 °F 48.9 °F 96% 30.31 in 5.0 mi NNW 4.6 mph - N/A   Overcast
9:07 AM 50.0 °F 48.9 °F 96% 30.31 in 2.0 mi NW 3.5 mph - N/A   Overcast
9:31 AM 50.0 °F 48.9 °F 96% 30.30 in 2.0 mi North 6.9 mph - N/A   Overcast
9:53 AM 50.0 °F 48.9 °F 96% 30.30 in 2.5 mi Calm Calm - N/A   Overcast
10:08 AM 50.0 °F 48.9 °F 96% 30.30 in 3.0 mi North 4.6 mph - 0.00 in Rain Light Rain
10:53 AM 51.1 °F 50.0 °F 96% 30.31 in 4.0 mi NNE 3.5 mph - 0.02 in Rain Light Rain
11:24 AM 51.1 °F 50.0 °F 96% 30.30 in 2.5 mi North 3.5 mph - 0.01 in Rain Light Rain
11:35 AM 51.1 °F 51.1 °F 100% 30.30 in 3.0 mi North 3.5 mph - 0.01 in   Overcast
11:53 AM 52.0 °F 51.1 °F 97% 30.30 in 4.0 mi NE 3.5 mph - 0.02 in Rain Light Rain
12:53 PM 53.1 °F 52.0 °F 96% 30.26 in 4.0 mi Calm Calm - 0.02 in   Overcast
1:53 PM 54.0 °F 53.1 °F 97% 30.24 in 5.0 mi Calm Calm - 0.02 in Rain Light Rain
2:53 PM 54.0 °F 53.1 °F 97% 30.23 in 5.0 mi North 3.5 mph - 0.02 in Rain Light Rain
3:12 PM 54.0 °F 54.0 °F 100% 30.23 in 3.0 mi North 3.5 mph - 0.03 in Rain Light Rain
3:53 PM 54.0 °F 53.1 °F 97% 30.22 in 6.0 mi North 3.5 mph - 0.04 in Rain Light Rain
4:32 PM 54.0 °F 53.1 °F 97% 30.20 in 5.0 mi NE 4.6 mph - 0.02 in Rain Light Rain
4:53 PM 54.0 °F 53.1 °F 97% 30.20 in 5.0 mi NNW 4.6 mph - 0.03 in Rain Light Rain
5:02 PM 53.1 °F 53.1 °F 100% 30.19 in 5.0 mi North 4.6 mph - 0.01 in Rain Light Rain
5:38 PM 53.1 °F 52.0 °F 96% 30.18 in 5.0 mi North 3.5 mph - 0.02 in Rain Light Rain
5:53 PM 52.0 °F 52.0 °F 100% 30.18 in 4.0 mi North 3.5 mph - 0.02 in   Overcast
6:53 PM 52.0 °F 52.0 °F 100% 30.18 in 4.0 mi Calm Calm - N/A   Overcast
7:25 PM 52.0 °F 52.0 °F 100% 30.17 in 4.0 mi Calm Calm - 0.00 in Rain Light Rain
7:48 PM 51.8 °F 51.8 °F 100% 30.17 in 4.0 mi Calm Calm - 0.01 in Rain Light Rain
7:53 PM 52.0 °F 52.0 °F 100% 30.17 in 4.0 mi Calm Calm - 0.02 in Rain Light Rain
8:01 PM 52.0 °F 52.0 °F 100% 30.16 in 4.0 mi North 3.5 mph - 0.00 in Rain Light Rain
8:19 PM 52.0 °F 52.0 °F 100% 30.16 in 4.0 mi Calm Calm - 0.01 in Rain Light Rain
8:29 PM 52.0 °F 51.1 °F 97% 30.16 in 5.0 mi NNE 3.5 mph - 0.01 in Rain Light Rain
8:53 PM 52.0 °F 52.0 °F 100% 30.17 in 3.0 mi Calm Calm - 0.03 in Rain Light Rain
9:22 PM 52.0 °F 51.1 °F 97% 30.15 in 4.0 mi NE 3.5 mph - 0.02 in Rain Light Rain
9:26 PM 52.0 °F 51.1 °F 97% 30.15 in 3.0 mi NE 3.5 mph - 0.02 in Rain Light Rain
9:31 PM 52.0 °F 51.1 °F 97% 30.14 in 3.0 mi NE 4.6 mph - 0.02 in Rain Light Rain
9:39 PM 52.0 °F 51.1 °F 97% 30.14 in 3.0 mi NE 4.6 mph - 0.03 in Rain Light Rain
9:46 PM 52.0 °F 51.1 °F 97% 30.14 in 3.0 mi Calm Calm - 0.03 in Rain Light Rain
9:53 PM 52.0 °F 51.1 °F 97% 30.15 in 4.0 mi Calm Calm - 0.03 in Rain Light Rain
10:00 PM 52.0 °F 52.0 °F 100% 30.14 in 4.0 mi Calm Calm - 0.00 in   Overcast
10:20 PM 52.0 °F 52.0 °F 100% 30.14 in 2.0 mi Calm Calm - 0.00 in   Overcast
10:35 PM 52.0 °F 52.0 °F 100% 30.13 in 3.0 mi Calm Calm - 0.00 in   Overcast
10:53 PM 52.0 °F 52.0 °F 100% 30.12 in 3.0 mi Calm Calm - 0.00 in   Overcast
11:09 PM 52.0 °F 52.0 °F 100% 30.11 in 2.5 mi Calm Calm - N/A   Overcast
11:29 PM 52.0 °F 52.0 °F 100% 30.11 in 1.8 mi Calm Calm - N/A   Overcast
11:53 PM 52.0 °F 52.0 °F 100% 30.10 in 1.2 mi Calm Calm - 0.00 in   Overcast